Rbgn^[z[y[W
メイン
   新天体発見情報
     Comet C/2017 P2 (PANSTARRS)
投稿するにはまず登録を

スレッド表示 | 新しいものから 前のトピック | 次のトピック | 下へ
投稿者 スレッド
佐藤裕久
投稿日時: 2017-8-24 12:37
モデレータ
登録日: 2005-6-12
居住地: 日本
投稿: 2505
オンライン
Comet C/2017 P2 (PANSTARRS)

R. WainscoatとM. Micheliの通報によると、8月14.3日UT、Haleakalaにある1.8-m Pan-STARRS1望遠鏡で
得たCCD画像から疑わしい彗星を発見した。Mauna Keaにある3.6-m Canada-France-Hawaii Telescope
(CFHT)で得たCCD画像から彗星であることが確認された。
8月20.3日UT、R. J. WainscoatとC. Wipperが得た60秒3枚のw-バンドCFHT画像では、核は点状に近い集光
だが、隣接する恒星よりわずかに拡張して見える(FWHMは1".1で隣接する恒星は0".9)。
この天体は、p.a.およそ120°におよそ3"の短い尾がある(M. MicheliとWainscoatによる測定)。
D. D. Balamによれば、8月22.2日UT、カナダ国立研究機関 (National Research Council of Canada:NRC)
の1.82-m Plaskett望遠鏡で得たスタックCCD画像で、8"のコマがあり広く、p.a. 122°に12"伸びた扇形の
尾が見え、露出の典型的な恒星状のイメージで、FWHMは2".2である。

発見位置は次のとおり、

     2017 UT             R.A. (2000) Decl.       Mag.
     Aug. 14.25763   16 03 27.31   +34 46 00.6   21.9
          14.26952   16 03 27.90   +34 45 49.5   22.2
          14.28141   16 03 28.48   +34 45 38.6   22.1
          14.29330   16 03 29.08   +34 45 27.3   22.1

暫定放物線軌道要素と位置推算表は次のとおり、

Orbital elements:
    C/2017 P2 (PANSTARRS)
T 2017 Dec. 6.64489 TT                                  MPCW
q   2.4600137            (2000.0)            P               Q
                   Peri.  132.31243     +0.53347371     +0.82387935
                   Node   165.55018     -0.80130366     +0.41985279
e   1.0            Incl.   50.08344     +0.27077341     -0.38071833
From 30 observations 2017 Aug. 14-22.

Ephemeris:
    C/2017 P2 (PANSTARRS)
Date    TT    R. A. (2000) Decl.     Delta      r     Elong.  Phase   m1
2017 07 24    15 50 18.6 +39 45 41   2.5988  2.8644    94.6    20.7  21.6
...
2017 08 08    15 58 28.9 +36 20 57   2.6036  2.7864    89.5    21.3  21.5
...
2017 08 16    16 04 59.9 +34 18 45   2.6086  2.7475    86.9    21.6  21.5
...
2017 08 22    16 10 48.8 +32 42 26   2.6137  2.7196    85.0    21.7  21.4
2017 08 23    16 11 51.4 +32 26 04   2.6146  2.7150    84.7    21.8  21.4
2017 08 24    16 12 55.3 +32 09 36   2.6156  2.7105    84.4    21.8  21.4
...
2017 08 30    16 19 44.3 +30 29 12   2.6224  2.6842    82.5    21.9  21.4
...
2017 09 07    16 29 54.3 +28 11 59   2.6336  2.6510    80.0    22.0  21.3
...
2017 09 22    16 51 57.7 +23 49 14   2.6634  2.5950    75.2    22.0  21.3

(CBET 4423、MPEC 2017-Q99)
スレッド表示 | 新しいものから 前のトピック | 次のトピック | トップ

投稿するにはまず登録を
 
© 1999 Tsutomu Seki.